Flag for Belgium Weather past 2 weeks in Mons, Belgium

Now
57 °F

Broken clouds.


Feels Like: 55 °F
Forecast: 41 / 67 °F
Wind: 8 mph from Northwest

Location: Chievres

Current Time: May 26, 2015 at 12:27:39 PM

Latest Report: May 26, 2015 at 11:55 AM


Visibility: N/A

Pressure: 30.18 "Hg

Humidity: 55%

Dew point: 41 °F

Location of MonsLocation

Historic Weather in Mons — Graph

°F

Mons temperature yesterday

Maximum temperature yesterday: 61 °F (at 1:55 PM)
Minimum temperature yesterday: 46 °F (at 11:25 PM)
Average temperature yesterday: 55 °F

Past Weeks' High & Low Weather Summary

 TemperatureHumidityPressure
High75 °F (May 11, 2:55 PM)100% (May 14, 9:55 PM)30.36 "Hg (May 14, 9:55 PM)
Low39 °F (May 21, 4:55 AM)35% (May 24, 4:25 PM)29.68 "Hg (May 18, 10:55 PM)
Average54 °F77%30.09 "Hg
* Reported May 11 11:25 AM — May 26 11:25 AM, Mons, Weather by CustomWeather, © 2015

Note: Actual official high and low records may vary slightly from our data, if they occured in-between our weather recording intervals... More about our weather records

Advertising

Mons weather history for previous 24 hours

 ConditionsComfort  
Time TempWeatherWind HumidityBarometerVisibility
11:25 AM
Tue, May 26
57 °FPartly sunny.6 mph63%30.18 "HgN/A
10:55 AM57 °FBroken clouds.6 mph63%30.18 "HgN/A
10:25 AM57 °FPartly sunny.6 mph67%30.18 "HgN/A
9:55 AM54 °FPartly sunny.6 mph77%30.18 "HgN/A
9:25 AM54 °FScattered clouds.5 mph72%30.18 "HgN/A
8:55 AM54 °FPassing clouds.3 mph77%30.15 "HgN/A
8:25 AM52 °FPassing clouds.1 mph82%30.15 "HgN/A
7:55 AM50 °FScattered clouds.1 mph82%30.15 "HgN/A
7:25 AM46 °FScattered clouds.1 mph87%30.15 "HgN/A
6:55 AM45 °FBroken clouds.2 mph93%30.12 "HgN/A
6:25 AM43 °FPartly cloudy.2 mph93%30.12 "HgN/A
5:55 AM41 °FPassing clouds.2 mph93%30.12 "HgN/A
5:25 AM41 °FQuite cool.2 mph87%30.12 "HgN/A
4:55 AM41 °FQuite cool.2 mph87%30.12 "HgN/A
4:25 AM41 °FQuite cool.2 mph93%30.12 "HgN/A
3:55 AM41 °FQuite cool.2 mph93%30.12 "HgN/A
3:25 AM41 °FQuite cool.2 mph93%30.12 "HgN/A
2:55 AM41 °FQuite cool.2 mph93%30.12 "HgN/A
2:25 AM43 °FQuite cool.2 mph87%30.12 "HgN/A
1:55 AM45 °FQuite cool.2 mph81%30.12 "HgN/A
1:25 AM46 °FCool.3 mph76%30.12 "HgN/A
12:55 AM46 °FCool.5 mph76%30.12 "HgN/A
12:25 AM46 °FCool.2 mph76%30.09 "HgN/A
11:55 PM
Mon, May 25
46 °FCool.5 mph82%30.09 "HgN/A
11:25 PM46 °FPassing clouds.6 mph82%30.09 "HgN/A
10:25 PM48 °FScattered clouds.6 mph76%30.09 "HgN/A
9:55 PM48 °FScattered clouds.7 mph76%30.09 "HgN/A
9:25 PM50 °FPassing clouds.9 mph71%30.09 "HgN/A
8:55 PM52 °FPartly sunny.12 mph67%30.07 "HgN/A
8:25 PM54 °FPassing clouds.13 mph58%30.07 "Hg6 mi
7:55 PM54 °FPassing clouds.14 mph58%30.07 "HgN/A
7:25 PM55 °FPassing clouds.16 mph59%30.07 "HgN/A
6:55 PM55 °FPartly sunny.14 mph63%30.04 "HgN/A
6:25 PM57 °FPartly sunny.12 mph67%30.04 "HgN/A
5:55 PM57 °FBroken clouds.13 mph67%30.04 "HgN/A
5:25 PM57 °FPartly sunny.14 mph63%30.04 "HgN/A
4:55 PM57 °FBroken clouds.15 mph67%30.04 "HgN/A
4:25 PM59 °FPartly sunny.13 mph63%30.04 "HgN/A
3:55 PM59 °FPartly sunny.12 mph63%30.04 "HgN/A
3:25 PM61 °FBroken clouds.12 mph59%30.04 "HgN/A
2:55 PM61 °FPartly sunny.12 mph55%30.04 "HgN/A
2:25 PM61 °FBroken clouds.12 mph59%30.04 "HgN/A
1:55 PM61 °FPartly sunny.12 mph63%30.04 "HgN/A
1:25 PM59 °FBroken clouds.10 mph68%30.04 "HgN/A
12:55 PM59 °FPartly sunny.8 mph68%30.04 "HgN/A
12:25 PM59 °FBroken clouds.9 mph68%30.04 "HgN/A
Weather by CustomWeather, © 2015

See weather overviewHow to use our weather pages